Find Starlink 37981

NORAD ID: 100282 Int'l Des: 2026-183 Owner: SPXS Country: US Constellation: starlink operational

Aktuelle Ansicht

3D-Globus wird geladen...

About Starlink 37981

Starlink 37981 (NORAD 100282) is a starlink constellation satellite launched Aug 11, 2026 by SPXS of US. with a mass of 575.00 kg.

Nächste Überflüge

Passes for default location (London). Set your location on the main map for personalized predictions.

Höhenverlauf

Loading altitude history...

Zweizeiliger Elementsatz

1 A0282U 26183L 26249.37985374 .00143488 00000-0 92495-3 0 9991
2 A0282 53.1608 327.1580 0001223 91.2598 268.8562 15.75225622 4081
Epoch: 6. Sept. 2026 • Age: 12 hours

Aktueller Status

Höhe 351.5 km
Apogäum / Perigäum N/A
Geschwindigkeit 7.70 km/s
Subsatellitenpunkt -25.50°S, 0.47°E
Startdatum 11. Aug. 2026
Alter 26 days
Typ internet

Technische Details

Klassifizierung Payload
Masse 575.00 kg
Trockenmasse 530.00 kg
Gesamtmasse 575.00 kg
Länge 0.30 m
Durchmesser 4.10 m
Spannweite 29.00 m
Form Box + pan
Hersteller SPXS
Bus-Typ Starlink V2MO
Phasenstatus In Orbit
Besitzer/Staat SPXS/US

Most Searched